Time,TemperatureF,DewpointF,PressureIn,WindDirection,WindDirectionDegrees,WindSpeedMPH,WindSpeedGustMPH,Humidity,HourlyPrecipIn,Conditions,Clouds,dailyrainin,SoftwareType,DateUTC
2013-02-20 00:00:00,27.1,24.0,29.96,SSE,157,3.0,11.0,89,0.00,,,0.00,weatherlink.com 1.10,2013-02-20 05:00:00,
2013-02-20 00:15:00,26.6,23.0,29.96,SSE,147,1.0,9.0,87,0.00,,,0.00,weatherlink.com 1.10,2013-02-20 05:15:00,
2013-02-20 00:30:00,26.3,23.0,29.96,South,170,4.0,6.0,86,0.00,,,0.00,weatherlink.com 1.10,2013-02-20 05:30:00,
2013-02-20 00:45:00,26.2,23.0,29.96,SSE,158,3.0,5.0,86,0.00,,,0.00,weatherlink.com 1.10,2013-02-20 05:45:00,
2013-02-20 01:00:00,26.2,23.0,29.97,South,190,2.0,4.0,88,0.00,,,0.00,weatherlink.com 1.10,2013-02-20 06:00:00,
2013-02-20 01:15:00,25.9,23.0,29.96,SW,232,2.0,6.0,88,0.00,,,0.00,weatherlink.com 1.10,2013-02-20 06:15:00,
2013-02-20 01:30:00,25.2,22.0,29.97,NNE,29,3.0,15.0,86,0.00,,,0.00,weatherlink.com 1.10,2013-02-20 06:30:00,
2013-02-20 01:45:00,23.9,20.0,29.98,ENE,75,3.0,10.0,83,0.00,,,0.00,weatherlink.com 1.10,2013-02-20 06:45:00,
2013-02-20 02:00:00,23.0,20.0,29.98,SW,214,3.0,8.0,89,0.00,,,0.00,weatherlink.com 1.10,2013-02-20 07:00:00,
2013-02-20 02:15:00,22.9,20.0,29.99,SSE,165,4.0,8.0,87,0.00,,,0.00,weatherlink.com 1.10,2013-02-20 07:15:00,
2013-02-20 02:30:00,22.9,19.0,29.98,North,5,2.0,9.0,86,0.00,,,0.00,weatherlink.com 1.10,2013-02-20 07:30:00,
2013-02-20 02:45:00,22.7,18.0,29.99,ESE,122,5.0,8.0,83,0.00,,,0.00,weatherlink.com 1.10,2013-02-20 07:45:00,
2013-02-20 03:00:00,22.2,18.0,30.00,SW,215,3.0,7.0,83,0.00,,,0.00,weatherlink.com 1.10,2013-02-20 08:00:00,
2013-02-20 03:15:00,21.4,16.0,30.00,SSW,193,2.0,10.0,80,0.00,,,0.00,weatherlink.com 1.10,2013-02-20 08:15:00,
2013-02-20 03:30:00,20.5,14.0,30.00,NNE,18,3.0,11.0,77,0.00,,,0.00,weatherlink.com 1.10,2013-02-20 08:30:00,
2013-02-20 03:45:00,19.9,14.0,30.00,SSW,207,1.0,8.0,77,0.00,,,0.00,weatherlink.com 1.10,2013-02-20 08:45:00,
2013-02-20 04:00:00,19.6,14.0,29.99,SSE,165,5.0,15.0,78,0.00,,,0.00,weatherlink.com 1.10,2013-02-20 09:00:00,
2013-02-20 04:15:00,19.1,13.0,29.99,ESE,109,2.0,10.0,77,0.00,,,0.00,weatherlink.com 1.10,2013-02-20 09:15:00,
2013-02-20 04:30:00,18.7,12.0,29.99,ESE,105,4.0,13.0,76,0.00,,,0.00,weatherlink.com 1.10,2013-02-20 09:30:00,
2013-02-20 04:45:00,18.3,11.0,29.99,SW,217,3.0,13.0,74,0.00,,,0.00,weatherlink.com 1.10,2013-02-20 09:45:00,
2013-02-20 05:00:00,18.0,11.0,29.99,South,188,3.0,10.0,75,0.00,,,0.00,weatherlink.com 1.10,2013-02-20 10:00:00,
2013-02-20 05:15:00,17.7,11.0,30.00,South,184,7.0,10.0,74,0.00,,,0.00,weatherlink.com 1.10,2013-02-20 10:15:00,
2013-02-20 05:31:00,17.5,10.0,30.00,SW,215,3.0,14.0,73,0.00,,,0.00,weatherlink.com 1.10,2013-02-20 10:31:00,
2013-02-20 05:46:00,17.1,10.0,30.01,East,82,7.0,8.0,73,0.00,,,0.00,weatherlink.com 1.10,2013-02-20 10:46:00,
2013-02-20 06:01:00,16.8,10.0,30.01,East,93,3.0,15.0,73,0.00,,,0.00,weatherlink.com 1.10,2013-02-20 11:01:00,
2013-02-20 06:16:00,16.6,10.0,30.02,South,179,5.0,12.0,74,0.00,,,0.00,weatherlink.com 1.10,2013-02-20 11:16:00,
2013-02-20 06:31:00,16.6,10.0,30.03,SSE,160,4.0,10.0,75,0.00,,,0.00,weatherlink.com 1.10,2013-02-20 11:31:00,
2013-02-20 06:46:00,16.2,10.0,30.03,South,191,5.0,8.0,76,0.00,,,0.00,weatherlink.com 1.10,2013-02-20 11:46:00,
2013-02-20 07:01:00,15.8,10.0,30.03,SSW,209,3.0,8.0,78,0.00,,,0.00,weatherlink.com 1.10,2013-02-20 12:01:00,
2013-02-20 07:16:00,15.8,10.0,30.04,SSW,208,5.0,9.0,78,0.00,,,0.00,weatherlink.com 1.10,2013-02-20 12:16:00,
2013-02-20 07:31:00,16.1,10.0,30.04,SSW,198,6.0,7.0,78,0.00,,,0.00,weatherlink.com 1.10,2013-02-20 12:31:00,
2013-02-20 07:46:00,16.3,10.0,30.05,SSW,201,5.0,12.0,77,0.00,,,0.00,weatherlink.com 1.10,2013-02-20 12:46:00,
2013-02-20 08:01:00,16.6,11.0,30.05,SW,217,2.0,13.0,77,0.00,,,0.00,weatherlink.com 1.10,2013-02-20 13:01:00,
2013-02-20 08:16:00,17.0,11.0,30.06,WSW,239,4.0,11.0,76,0.00,,,0.00,weatherlink.com 1.10,2013-02-20 13:16:00,
2013-02-20 08:31:00,17.0,10.0,30.06,SSW,203,3.0,9.0,75,0.00,,,0.00,weatherlink.com 1.10,2013-02-20 13:31:00,
2013-02-20 08:46:00,17.4,10.0,30.06,SW,229,5.0,12.0,74,0.00,,,0.00,weatherlink.com 1.10,2013-02-20 13:46:00,
2013-02-20 09:01:00,17.5,11.0,30.06,NNW,327,1.0,12.0,74,0.00,,,0.00,weatherlink.com 1.10,2013-02-20 14:01:00,
2013-02-20 09:16:00,19.0,11.0,30.06,SSE,148,5.0,17.0,71,0.00,,,0.00,weatherlink.com 1.10,2013-02-20 14:16:00,
2013-02-20 09:31:00,20.0,11.0,30.06,SW,233,3.0,15.0,67,0.00,,,0.00,weatherlink.com 1.10,2013-02-20 14:31:00,
2013-02-20 09:46:00,18.8,10.0,30.06,SW,214,5.0,14.0,69,0.00,,,0.00,weatherlink.com 1.10,2013-02-20 14:46:00,
2013-02-20 10:01:00,18.5,10.0,30.07,SE,134,4.0,11.0,69,0.00,,,0.00,weatherlink.com 1.10,2013-02-20 15:01:00,
2013-02-20 10:16:00,18.6,10.0,30.07,SW,224,10.0,15.0,69,0.00,,,0.00,weatherlink.com 1.10,2013-02-20 15:16:00,
2013-02-20 10:31:00,18.6,10.0,30.07,SSW,207,7.0,14.0,69,0.00,,,0.00,weatherlink.com 1.10,2013-02-20 15:31:00,
2013-02-20 10:46:00,18.9,10.0,30.07,SW,217,1.0,12.0,69,0.00,,,0.00,weatherlink.com 1.10,2013-02-20 15:46:00,
2013-02-20 11:01:00,20.5,11.0,30.07,ESE,108,7.0,11.0,66,0.00,,,0.00,weatherlink.com 1.10,2013-02-20 16:01:00,
2013-02-20 11:16:00,20.6,12.0,30.08,WSW,240,3.0,11.0,68,0.00,,,0.00,weatherlink.com 1.10,2013-02-20 16:16:00,
2013-02-20 11:31:00,20.3,11.0,30.07,SSW,204,6.0,12.0,67,0.00,,,0.00,weatherlink.com 1.10,2013-02-20 16:31:00,
2013-02-20 11:46:00,20.3,11.0,30.07,SSW,201,12.0,12.0,66,0.00,,,0.00,weatherlink.com 1.10,2013-02-20 16:46:00,
2013-02-20 12:01:00,21.8,9.0,30.07,SSE,159,7.0,17.0,59,0.00,,,0.00,weatherlink.com 1.10,2013-02-20 17:01:00,
2013-02-20 12:16:00,23.1,9.0,30.06,SW,218,5.0,16.0,55,0.00,,,0.00,weatherlink.com 1.10,2013-02-20 17:16:00,
2013-02-20 12:31:00,23.0,9.0,30.06,SW,229,13.0,14.0,56,0.00,,,0.00,weatherlink.com 1.10,2013-02-20 17:31:00,
2013-02-20 12:46:00,21.9,10.0,30.06,SW,214,9.0,10.0,61,0.00,,,0.00,weatherlink.com 1.10,2013-02-20 17:46:00,
2013-02-20 13:01:00,20.8,10.0,30.06,ENE,74,5.0,15.0,64,0.00,,,0.00,weatherlink.com 1.10,2013-02-20 18:01:00,
2013-02-20 13:16:00,21.2,11.0,30.07,SSW,194,4.0,17.0,64,0.00,,,0.00,weatherlink.com 1.10,2013-02-20 18:16:00,
2013-02-20 13:31:00,19.7,14.0,30.07,SW,224,5.0,13.0,78,0.00,,,0.00,weatherlink.com 1.10,2013-02-20 18:31:00,
2013-02-20 13:46:00,21.2,16.0,30.07,SW,217,5.0,8.0,79,0.00,,,0.00,weatherlink.com 1.10,2013-02-20 18:46:00,
2013-02-20 14:01:00,22.7,11.0,30.07,SSW,210,7.0,18.0,61,0.00,,,0.00,weatherlink.com 1.10,2013-02-20 19:01:00,
2013-02-20 14:16:00,22.0,11.0,30.07,SW,231,6.0,14.0,62,0.00,,,0.00,weatherlink.com 1.10,2013-02-20 19:16:00,
2013-02-20 14:31:00,21.5,12.0,30.08,WNW,298,2.0,15.0,67,0.00,,,0.00,weatherlink.com 1.10,2013-02-20 19:31:00,
2013-02-20 14:46:00,20.7,10.0,30.08,South,190,8.0,11.0,64,0.00,,,0.00,weatherlink.com 1.10,2013-02-20 19:46:00,
2013-02-20 15:01:00,20.1,7.0,30.08,SW,225,7.0,18.0,58,0.00,,,0.00,weatherlink.com 1.10,2013-02-20 20:01:00,
2013-02-20 15:16:00,19.4,8.0,30.09,SSE,153,8.0,15.0,61,0.00,,,0.00,weatherlink.com 1.10,2013-02-20 20:16:00,
2013-02-20 15:31:00,18.3,6.0,30.10,South,176,16.0,19.0,58,0.00,,,0.00,weatherlink.com 1.10,2013-02-20 20:31:00,
2013-02-20 15:47:00,19.3,7.0,30.11,SW,217,8.0,16.0,58,0.00,,,0.00,weatherlink.com 1.10,2013-02-20 20:47:00,
2013-02-20 16:02:00,18.8,7.0,30.12,SSW,201,3.0,13.0,60,0.00,,,0.00,weatherlink.com 1.10,2013-02-20 21:02:00,
2013-02-20 16:17:00,18.1,7.0,30.12,SSW,203,8.0,16.0,61,0.00,,,0.00,weatherlink.com 1.10,2013-02-20 21:17:00,
2013-02-20 16:32:00,17.3,6.0,30.12,South,186,7.0,15.0,62,0.00,,,0.00,weatherlink.com 1.10,2013-02-20 21:32:00,
2013-02-20 16:47:00,16.5,6.0,30.13,South,183,7.0,15.0,64,0.00,,,0.00,weatherlink.com 1.10,2013-02-20 21:47:00,
2013-02-20 17:02:00,16.1,7.0,30.14,SE,143,6.0,16.0,68,0.00,,,0.00,weatherlink.com 1.10,2013-02-20 22:02:00,
2013-02-20 17:17:00,15.7,8.0,30.15,WSW,253,4.0,15.0,71,0.00,,,0.00,weatherlink.com 1.10,2013-02-20 22:17:00,
2013-02-20 17:32:00,15.2,8.0,30.16,SSW,211,7.0,12.0,72,0.00,,,0.00,weatherlink.com 1.10,2013-02-20 22:32:00,
2013-02-20 17:47:00,15.1,7.0,30.17,SW,221,7.0,10.0,71,0.00,,,0.00,weatherlink.com 1.10,2013-02-20 22:47:00,
2013-02-20 18:02:00,14.9,7.0,30.17,South,183,6.0,16.0,71,0.00,,,0.00,weatherlink.com 1.10,2013-02-20 23:02:00,
2013-02-20 18:17:00,14.9,8.0,30.18,SSW,203,6.0,11.0,73,0.00,,,0.00,weatherlink.com 1.10,2013-02-20 23:17:00,
2013-02-20 18:32:00,14.9,8.0,30.20,ENE,78,6.0,10.0,75,0.00,,,0.00,weatherlink.com 1.10,2013-02-20 23:32:00,
2013-02-20 18:47:00,14.8,9.0,30.19,SSW,208,5.0,12.0,76,0.00,,,0.00,weatherlink.com 1.10,2013-02-20 23:47:00,
2013-02-20 19:02:00,14.8,9.0,30.21,SW,219,9.0,13.0,77,0.00,,,0.00,weatherlink.com 1.10,2013-02-21 00:02:00,
2013-02-20 19:17:00,14.9,9.0,30.21,SSE,160,6.0,12.0,77,0.00,,,0.00,weatherlink.com 1.10,2013-02-21 00:17:00,
2013-02-20 19:32:00,14.8,9.0,30.21,SSW,212,3.0,9.0,78,0.00,,,0.00,weatherlink.com 1.10,2013-02-21 00:32:00,
2013-02-20 19:47:00,14.7,9.0,30.21,SW,221,4.0,12.0,78,0.00,,,0.00,weatherlink.com 1.10,2013-02-21 00:47:00,
2013-02-20 20:02:00,14.8,9.0,30.21,SW,222,4.0,9.0,77,0.00,,,0.00,weatherlink.com 1.10,2013-02-21 01:02:00,
2013-02-20 20:17:00,14.8,9.0,30.21,SSE,164,3.0,14.0,77,0.00,,,0.00,weatherlink.com 1.10,2013-02-21 01:17:00,
2013-02-20 20:32:00,14.7,9.0,30.22,SW,218,5.0,13.0,77,0.00,,,0.00,weatherlink.com 1.10,2013-02-21 01:32:00,
2013-02-20 20:47:00,14.7,9.0,30.22,South,184,2.0,12.0,78,0.00,,,0.00,weatherlink.com 1.10,2013-02-21 01:47:00,
2013-02-20 21:02:00,14.7,9.0,30.23,SSE,160,3.0,9.0,78,0.00,,,0.00,weatherlink.com 1.10,2013-02-21 02:02:00,
2013-02-20 21:17:00,14.7,9.0,30.23,SW,219,6.0,15.0,79,0.00,,,0.00,weatherlink.com 1.10,2013-02-21 02:17:00,
2013-02-20 21:32:00,14.8,9.0,30.23,West,279,2.0,13.0,79,0.00,,,0.00,weatherlink.com 1.10,2013-02-21 02:32:00,
2013-02-20 21:47:00,14.9,10.0,30.24,SSE,162,1.0,17.0,79,0.00,,,0.00,weatherlink.com 1.10,2013-02-21 02:47:00,
2013-02-20 22:02:00,14.8,9.0,30.24,SSW,200,3.0,13.0,79,0.00,,,0.00,weatherlink.com 1.10,2013-02-21 03:02:00,
2013-02-20 22:17:00,14.9,10.0,30.24,NE,34,3.0,12.0,79,0.00,,,0.00,weatherlink.com 1.10,2013-02-21 03:17:00,
2013-02-20 22:32:00,14.9,10.0,30.24,WNW,291,0.0,11.0,79,0.00,,,0.00,weatherlink.com 1.10,2013-02-21 03:32:00,
2013-02-20 22:47:00,14.9,10.0,30.24,SSW,203,5.0,14.0,80,0.00,,,0.00,weatherlink.com 1.10,2013-02-21 03:47:00,
2013-02-20 23:17:00,14.8,10.0,30.23,SSW,197,6.0,14.0,81,0.00,,,0.00,weatherlink.com 1.10,2013-02-21 04:17:00,
2013-02-20 23:32:00,14.8,10.0,30.23,NNE,29,4.0,16.0,81,0.00,,,0.00,weatherlink.com 1.10,2013-02-21 04:32:00,
2013-02-20 23:47:00,14.8,10.0,30.23,SW,226,6.0,13.0,81,0.00,,,0.00,weatherlink.com 1.10,2013-02-21 04:47:00,